TimeIST,TemperatureF,Dew PointF,Humidity,Sea Level PressureIn,VisibilityMPH,Wind Direction,Wind SpeedMPH,Gust SpeedMPH,PrecipitationIn,Events,Conditions,WindDirDegrees,DateUTC
12:00 AM,60.8,57.2,88,29.92,1.6,Calm,Calm,-,N/A,,Mist,0,2012-10-31 18:30:00
1:00 AM,60.8,57.2,88,29.89,1.2,Calm,Calm,-,N/A,,Mist,0,2012-10-31 19:30:00
2:00 AM,59.0,57.2,94,29.89,1.2,Calm,Calm,-,N/A,,Mist,0,2012-10-31 20:30:00
2:30 AM,59,56,87,29.91,1,Calm,Calm,,,,Mist,,2012-10-31 21:00:00
3:00 AM,59.0,55.4,88,29.89,1.2,Calm,Calm,-,N/A,,Mist,0,2012-10-31 21:30:00
5:00 AM,57.2,55.4,94,29.89,0.9,Calm,Calm,-,N/A,,Mist,0,2012-10-31 23:30:00
5:30 AM,57,56,95,29.93,1,Calm,Calm,,,,Mist,,2012-11-01 00:00:00
5:30 AM,57.2,55.4,94,29.89,0.9,Calm,Calm,-,N/A,,Mist,0,2012-11-01 00:00:00
6:00 AM,57.2,55.4,94,29.92,0.9,Calm,Calm,-,N/A,,Mist,0,2012-11-01 00:30:00
6:30 AM,57.2,55.4,94,29.92,0.6,Calm,Calm,-,N/A,Fog,Shallow Fog,0,2012-11-01 01:00:00
8:00 AM,64.4,60.8,88,29.95,0.5,Calm,Calm,-,N/A,,Scattered Clouds,0,2012-11-01 02:30:00
8:30 AM,68,62,74,29.99,0,,2.3,,,Fog,Partial Fog,,2012-11-01 03:00:00
8:30 AM,68.0,60.8,78,29.98,0.5,Variable,2.3,-,N/A,Fog,Fog,0,2012-11-01 03:00:00
9:00 AM,71.6,60.8,69,29.98,0.9,Calm,Calm,-,N/A,,Haze,0,2012-11-01 03:30:00
10:00 AM,78.8,59.0,51,29.98,1.2,Variable,2.3,-,N/A,,Haze,0,2012-11-01 04:30:00
10:30 AM,80.6,59.0,48,29.98,1.2,Variable,2.3,-,N/A,,Haze,0,2012-11-01 05:00:00
11:00 AM,82.4,59.0,45,29.95,1.6,Variable,2.3,-,N/A,,Haze,0,2012-11-01 05:30:00
11:30 AM,82,58,33,29.96,1,,2.3,,,,Haze,,2012-11-01 06:00:00
11:30 AM,82.4,57.2,42,29.95,1.9,Variable,2.3,-,N/A,,Haze,0,2012-11-01 06:00:00
12:00 PM,84.2,55.4,37,29.92,1.9,Variable,2.3,-,N/A,,Haze,0,2012-11-01 06:30:00
12:30 PM,84.2,53.6,35,29.92,1.9,NE,3.5,-,N/A,,Haze,50,2012-11-01 07:00:00
1:00 PM,86.0,55.4,35,29.89,1.9,NNW,3.5,-,N/A,,Haze,340,2012-11-01 07:30:00
1:30 PM,86.0,53.6,33,29.86,2.2,Variable,2.3,-,N/A,,Haze,0,2012-11-01 08:00:00
2:00 PM,86.0,53.6,33,29.86,2.5,NNW,3.5,-,N/A,,Haze,340,2012-11-01 08:30:00
2:30 PM,85,54,25,29.86,2,NE,4.6,,,,Haze,50,2012-11-01 09:00:00
2:30 PM,84.2,53.6,35,29.86,2.5,NE,4.6,-,N/A,,Haze,50,2012-11-01 09:00:00
3:00 PM,84.2,55.4,37,29.86,2.5,NNW,4.6,-,N/A,,Haze,340,2012-11-01 09:30:00
3:30 PM,84.2,55.4,37,29.86,2.5,Variable,2.3,-,N/A,,Haze,0,2012-11-01 10:00:00
4:00 PM,84.2,57.2,40,29.83,2.5,NW,4.6,-,N/A,,Haze,310,2012-11-01 10:30:00
5:00 PM,80.6,59.0,48,29.86,2.5,Calm,Calm,-,N/A,,Haze,0,2012-11-01 11:30:00
5:30 PM,78.8,62.6,57,29.86,2.5,Calm,Calm,-,N/A,,Haze,0,2012-11-01 12:00:00
6:00 PM,75.2,62.6,65,29.86,2.2,Calm,Calm,-,N/A,,Haze,0,2012-11-01 12:30:00
6:30 PM,71.6,62.6,73,29.86,2.2,Calm,Calm,-,N/A,,Haze,0,2012-11-01 13:00:00
7:30 PM,69.8,62.6,78,29.89,1.9,Calm,Calm,-,N/A,,Scattered Clouds,0,2012-11-01 14:00:00
8:00 PM,69.8,62.6,78,29.89,1.6,Calm,Calm,-,N/A,,Scattered Clouds,0,2012-11-01 14:30:00
8:30 PM,68,61,72,29.92,1,Calm,Calm,,,,Mist,,2012-11-01 15:00:00
8:30 PM,68.0,60.8,78,29.89,1.6,Calm,Calm,-,N/A,,Scattered Clouds,0,2012-11-01 15:00:00
9:00 PM,68.0,60.8,78,29.89,1.6,Calm,Calm,-,N/A,,Scattered Clouds,0,2012-11-01 15:30:00
10:00 PM,66.2,60.8,83,29.89,1.6,Calm,Calm,-,N/A,,Scattered Clouds,0,2012-11-01 16:30:00
11:00 PM,64.4,59.0,83,29.89,1.2,Calm,Calm,-,N/A,,Scattered Clouds,0,2012-11-01 17:30:00
11:30 PM,63,58,80,29.92,1,Calm,Calm,,,,Mist,,2012-11-01 18:00:00